Regional Weather Roundup
Issued by NWS Upton, NY

Current Version | Previous Version | Text Only | Print | Product List | Glossary Off
Versions: 1 2 3 4 5 6 7 8 9 10 11 12 13 14 15 16 17 18 19 20 21 22 23 24 25 26 27
000 ASUS41 KOKX 220508 RWROKX REGIONAL WEATHER ROUNDUP NATIONAL WEATHER SERVICE NEW YORK NY 1200 AM EST SUN JAN 22 2017 NOTE: "FAIR" INDICATES FEW OR NO CLOUDS BELOW 12,000 FEET WITH NO SIGNIFICANT WEATHER AND/OR OBSTRUCTIONS TO VISIBILITY. NYZ071-072-176-178-NJZ106-104-220600- NEW YORK CITY METRO AREA CITY SKY/WX TMP DP RH WIND PRES REMARKS Central Park CLOUDY 44 44 100 CALM 29.80F FOG Wall St Helipt CLOUDY 44 43 96 SW3 29.79F LaGuardia APRT FOG 46 45 96 S5 29.78F VSB 1 Kennedy INTL FOG 44 44 100 W6 29.79F VSB 1/8 Breezy Point N/A 43 N/A N/A W1 N/A Newark/Liberty CLOUDY 44 44 100 NW6 29.78F FOG Teterboro CLOUDY 46 45 96 CALM 29.78F FOG $$ NYZ177-179-078>081-220600- LONG ISLAND NEW YORK CITY SKY/WX TMP DP RH WIND PRES REMARKS Jones Beach N/A 41 N/A N/A W3 N/A Matinecock PT NOT AVBL Farmingdale FOG 44 44 100 W7 29.79F VSB 1/2 MacArthur/ISP FOG 43 43 100 W3 29.78F VSB 1/4 Shirley FOG 42 42 100 SW7 29.80S VSB 1/2 Westhampton FOG 42 41 96 SW9 29.81S VSB 1/2 Southampton NOT AVBL Bridgehampton NOT AVBL East Hampton FOG 40 39 99 SW3 29.78F VSB 1/4 Montauk N/A 41 41 100 CALM 29.79F $$ NYZ052-065-067-220600- HUDSON VALLEY CITY SKY/WX TMP DP RH WIND PRES REMARKS White Plains FOG 43 43 100 CALM 29.77F VSB 1/4 Newburgh FOG 41 41 100 VRB5 29.77F VSB 1/8 Montgomery FOG 42 41 96 SW7 29.75F VSB 3/4 Poughkeepsie CLOUDY 42 42 100 CALM 29.75F FOG Albany CLOUDY 40 38 93 CALM 29.76F $$ NJZ001-105-106-008-010-013-015-019>022-104-220600- NEW JERSEY CITY SKY/WX TMP DP RH WIND PRES REMARKS Newark/Liberty CLOUDY 44 44 100 NW6 29.78F FOG Teterboro CLOUDY 46 45 96 CALM 29.78F FOG Caldwell FOG 45 44 97 CALM 29.79F VSB 3/4 Somerville CLOUDY 44 43 96 SW3 29.78S FOG Linden CLOUDY 44 44 99 CALM 29.78F FOG Sussex FOG 42 42 100 S3 29.77F VSB 3/4 Andover N/A 42 41 96 SW3 29.78F Trenton FOG 44 44 100 CALM 29.79S VSB 1/4 Millville FOG 45 45 100 NE3 29.78F VSB 3/4 Atlantic City FOG 45 43 93 E3 29.79F VSB 1/2 Wrightstown FOG 45 45 99 CALM 29.76F VSB 3/4 Toms River FOG 45 45 100 CALM 29.80F VSB 1/4 Belmar FOG 44 44 100 S3 29.81F VSB 1/4 $$ PAZ047>061-062-071-220600- EASTERN PENNSYLVANIA CITY SKY/WX TMP DP RH WIND PRES REMARKS Philadelphia DRZL/FOG 46 45 96 CALM 29.80F VSB 1/2 Allentown FOG 43 41 93 CALM 29.79F VSB 1/2 Scranton FOG 42 42 100 CALM 29.75F VSB 1/4 $$ CTZ002-004>006-009-010-012-RIZ004-006-007-MAZ004-011-015-220600- SOUTHERN NEW ENGLAND IN CT CITY SKY/WX TMP DP RH WIND PRES REMARKS Bradley INTL CLOUDY 36 35 96 NE7 29.75F FOG WCI 30 Hartford CLOUDY 39 39 100 S6 29.76F FOG WCI 35 Danbury CLOUDY 37 35 92 CALM 29.77F FOG Wtrbury/Oxford CLOUDY 41 37 87 N3 29.77F Bridgeport FOG 43 40 89 SW9 29.79S VSB 1/4 Meriden FOG 38 35 89 S3 29.77F VSB 1/2 New Haven FOG 40 39 97 SW5 29.78F VSB 1/4 Chester FOG 39 39 100 CALM 29.77F VSB 1/4 Groton FOG 40 40 100 CALM 29.78F VSB 1/4 Wilimantic FOG 35 34 96 CALM 29.77F VSB 1/2 IN RI CITY SKY/WX TMP DP RH WIND PRES REMARKS Providence CLEAR 35 34 96 CALM 29.76F FOG Block Island NOT AVBL Westerly FOG 40 38 93 VRB7 29.79S VSB 1/4 IN MA CITY SKY/WX TMP DP RH WIND PRES REMARKS Boston PTCLDY 43 40 89 E3 29.75S Worcester PTCLDY 44 40 85 W13 29.74S Westfield FOG 34 34 100 CALM 29.75F VSB 1/2 Provincetown MOCLDY 39 38 96 SW8 29.76S FOG WCI 33 Nantucket FOG 40 39 97 W9 29.76F VSB 1/4 WCI 34 $$ ANZ330-335-338-340-345-350-353-355-220600- COASTAL MARINE OBSERVATIONS STATION/POSITION TIME SKY/WX TEMP WIND PRES VSBY WAVE AIR SEA DIR/SP/G HT/PER (UTC) (F) (DEG/KT/KT) (MB) (MI) (FT/S) NY HARB ENTRANCE 0350 44 44 220/ 6/ 8 1009.4 3/11 20 S FIRE ISLAND 0450 44 45 230/ 8/ 10 1008.7 3/10 GREAT SOUTH BAY NOT AVBL 23 SSW MONTAUK P 0350 44 47 240/ 12/ 14 1009.5 4/12 15 E BARNEGAT LI 0430 47 N/A 4/13 HUDSON CANYON 0350 48 51 1009.8 5/12 KINGS POINT 0448 44 40 1008.6 EXECUTION ROCKS 0445 43 200/ 6/ 6 N/A CENTRAL LI SOUND 0415 40 210/ 2/ 4 N/A 0 EASTERN LI SOUND NOT AVBL ROBBINS REEF 0448 44 320/ 2/ 3 1008.6 $$ >>>>>>>>>>>>>>>>>>>>>>>>>>>> KEY <<<<<<<<<<<<<<<<<<<<<<<<<<< > < > SKY/WX - Sky Condition/Present Weather < > TMP - Temperature in Fahrenheit < > DP - Dew Point in Fahrenheit < > RH - Relative Humidity in Percent < > WIND - Direction (from) and Speed in MPH < > PRES - Mean Sea Level Pressure (inches of Hg) < > WCI - Wind Chill Index < > VSB - VISIBILITY IN MILES < > HX - HEAT INDEX < > TC - TEMPERATURE IN CELSIUS < > VRB - VARIABLE WIND DIRECTION < > < >>>>>>>>>>>>>>>>>>>>>>>>>>>> KEY <<<<<<<<<<<<<<<<<<<<<<<<<<<

USA.gov is the U.S. government's official web portal to all federal, state and local government web resources and services.